Back to catalog

CZ-6A DEB

AliveSSO
NORAD 56662·DEBRIS·🇨🇳 China

Launched Nov 11, 2022 from Taiyuan Satellite Launch Center

Loading…

Next Passes (next 24 hours)

TLE

FreshSource: Space-Track

Epoch: Sep 14, 2026, 11:18 UTC

1 56662U 22151AGN 26257.47123335  .00000218  00000-0  14511-3 0  9992
2 56662  98.8517 254.2378 0068191 123.6725 237.0973 14.09948079179433

Track CZ-6A DEB in real time with AllMySat

Download on the App Store